Regional Weather Roundup
Issued by NWS Albany, NY

Home | Current Version | Previous Version | Graphics & Text | Print | Product List | Glossary On
Versions: 1 2 3 4 5 6 7 8 9 10 11 12 13 14 15 16 17 18 19 20 21 22 23 24 25 26 27 28 29 30 31 32 33 34 35 36 37 38 39 40 41 42 43 44 45 46 47 48 49 50
000
ASUS41 KALY 262010
RWRALY

NEW YORK STATE HOURLY WEATHER ROUNDUP
NATIONAL WEATHER SERVICE ALBANY NY
300 PM EST SUN FEB 26 2017

NOTE: "FAIR" INDICATES FEW OR NO CLOUDS BELOW 12,000 FEET WITH NO
SIGNIFICANT WEATHER AND/OR NO OBSTRUCTIONS TO VISIBILITY.

NYZ032-033-038>043-046>054-057>066-NYZ062>081-082-084-262100-
EAST


CITY           SKY/WX    TMP DP  RH WIND       PRES   REMARKS
ALBANY         CLOUDY    36  15  42 NW15G25   30.02R WCI  27
GLENS FALLS    CLOUDY    35  17  47 W14       29.99R WCI  26
POUGHKEEPSIE   PTSUNNY   39  15  37 NW13      30.01S WCI  31
NEWBURGH       PTSUNNY   37  19  48 W17G29    30.03R WCI  28
MONTGOMERY     CLOUDY    39  17  41 W16G22    30.02R WCI  30
WHITE PLAINS   MOSUNNY   39  16  39 NW16G26   30.00R WCI  30
ISLIP          MOSUNNY   42  16  34 W15G24    30.01R
NEW YORK CITY  MOSUNNY   44  13  28 W15G25    30.04R
CENTRAL PARK   SUNNY     41  13  31 NW8G18    30.06R
$$

NYZ005>009-017-018-044>046-055-056-262100-
CENTRAL


CITY           SKY/WX    TMP DP  RH WIND       PRES   REMARKS
FULTON         FLURRIES  31  22  69 W16       30.05S WCI  20
SYRACUSE       FLURRIES  32  20  61 W14       30.05R WCI  22
ROME           CLOUDY    31  24  75 W18       30.05S WCI  19
ELMIRA         CLOUDY    34  17  50 SW10      30.05R WCI  26
BINGHAMTON     CLOUDY    27  19  72 NW8       30.00R WCI  19
MONTICELLO     SUNNY    N/A N/A N/A NW15G21   30.00R
$$

NYZ026>034-041>043-087-262100-
NORTH


CITY           SKY/WX    TMP DP  RH WIND       PRES   REMARKS
WATERTOWN      PTSUNNY   34  22  61 W16G23    30.02S WCI  24
FORT DRUM      NOT AVBL
OGDENSBURG     FAIR      37  14  38 SW13      29.98S WCI  28
MASSENA        MOSUNNY   34  12  40 W18G25    29.98S WCI  23
SARANAC LAKE   PTSUNNY   25  12  58 W6        29.88R WCI  18
PLATTSBURGH    MOSUNNY   33   7  33 W10G21    29.96R WCI  25
$$

NYZ001>004-010>016-019>021-085-262100-
WEST


CITY           SKY/WX    TMP DP  RH WIND       PRES   REMARKS
NIAGARA FALLS  MOSUNNY   33  19  56 SW22G30   30.06S WCI  21
BUFFALO        FLURRIES  31  18  58 W23G35    30.07R WCI  18
DUNKIRK        MOSUNNY   32  20  61 SW15G25   30.10S WCI  22
JAMESTOWN      MOSUNNY   27  14  59 W14G20    30.05R WCI  15
WELLSVILLE     MOSUNNY   29  14  53 SW9G20    30.01S WCI  20
ROCHESTER      MOSUNNY   34  16  47 W17       30.06R WCI  23
PENN YAN       CLOUDY    32  17  54 W10       30.04F WCI  24
$$

             KEY
       WCI = WIND CHILL INDEX
       VSB = VISIBILITY
       HX  = HEAT INDEX
$$



USA.gov is the U.S. government's official web portal to all federal, state and local government web resources and services.